Location: Sand Canyon
(38.6177°N, 119.2463°W)
Time: 17:39:59
(UTC+00:00)

SL-8 R/B - Pass Details

Date: 05 July 2020
Orbit: 656 x 667 km, 48.4° (Epoch: 14 August)

Event Time Altitude Azimuth Distance (km) Brightness Sun altitude
Exits shadow 12:04:53 - 244° (WSW) 2,294 5.8 -6.4°
Reaches altitude 10° 12:05:28 10° 245° (WSW) 2,074 5.6 -6.3°
Maximum altitude 12:10:15 70° 330° (NNW) 704 3.9 -5.5°
Drops below altitude 10° 12:15:01 10° 54° (NE) 2,074 8.2 -4.7°
Sets 12:17:23 0° 57° (ENE) 2,986 10.4 -4.4°
